Change the Weather History Date:

Sunday, February 10, 2013

  Actual Average Record
Temperature  
Mean Temperature 36 °F -  
Max Temperature 39 °F 27 °F 52 °F (1977)
Min Temperature 33 °F 7 °F -16 °F (1982)
Degree Days  
Heating Degree Days 29    
Moisture  
Dew Point 30 °F    
Average Humidity 79    
Maximum Humidity 87    
Minimum Humidity 70    
Precipitation  
Precipitation 0.67 in - - ()
Sea Level Pressure  
Sea Level Pressure 29.45 in    
Wind  
Wind Speed 14 mph (SE)    
Max Wind Speed 25 mph    
Max Gust Speed 36 mph    
Visibility 3 miles    
Events Rain , Snow    
Averages and records for this station are not official NWS values.
T = Trace of Precipitation, MM = Missing Value Source: NWS Daily Summary

Daily Weather History Graph

Daily Weather History Graph

Search for Another Location

Airport or City:

Trip Planner

Search our weather history database for the weather conditions in past years. The results will help you decide how hot, cold, wet, or windy it might be!

Date:

Astronomy

Feb. 10, 2013 Rise Set
Actual Time 7:19 AM CST 5:36 PM CST
Civil Twilight 6:49 AM CST 6:06 PM CST
Nautical Twilight 6:15 AM CST 6:40 PM CST
Astronomical Twilight 5:41 AM CST 7:13 PM CST
Moon 7:06 AM CST (2/10) 6:31 PM CST (2/10)
Length of Visible Light 11h 17m
Length of Day
10h 16m
New Moon, 0% of the Moon is Illuminated
Feb 10
New Moon
Feb 17
First Quarter
Feb 25
Full
Mar 4
Last Quarter
Mar 11
New

Hourly Weather History & Observations

Time (CST) Temp. Windchill Dew Point Humidity Pressure Visibility Wind Dir Wind Speed Gust Speed Precip Events Conditions
12:13 AM 33.8 °F 25.8 °F 24.8 °F 70% 29.88 in 7.0 mi ESE 10.4 mph - N/A   Overcast
12:34 AM 33.8 °F 25.3 °F 24.8 °F 70% 29.87 in 7.0 mi ESE 11.5 mph 16.1 mph N/A   Overcast
12:54 AM 33.8 °F 24.3 °F 26.6 °F 75% 29.87 in 7.0 mi SE 13.8 mph - N/A   Overcast
1:14 AM 33.8 °F 24.3 °F 26.6 °F 75% 29.85 in 7.0 mi SE 13.8 mph 19.6 mph N/A   Overcast
1:34 AM 33.8 °F 23.9 °F 26.6 °F 75% 29.84 in 7.0 mi ESE 15.0 mph 19.6 mph N/A   Scattered Clouds
1:53 AM 33.8 °F 23.2 °F 26.6 °F 75% 29.83 in 5.0 mi ESE 17.3 mph 23.0 mph N/A   Haze
2:14 AM 33.8 °F 23.5 °F 26.6 °F 75% 29.83 in 5.0 mi SE 16.1 mph - N/A   Haze
2:33 AM 33.8 °F 23.9 °F 26.6 °F 75% 29.82 in 1.2 mi ESE 15.0 mph 19.6 mph N/A Snow Light Snow
2:53 AM 33.8 °F 23.9 °F 26.6 °F 75% 29.80 in 2.5 mi ESE 15.0 mph - 0.01 in Snow Light Snow
3:14 AM 33.8 °F 23.9 °F 26.6 °F 75% 29.77 in 4.0 mi ESE 15.0 mph - N/A   Overcast
3:34 AM 33.8 °F 23.5 °F 26.6 °F 75% 29.76 in 4.0 mi ESE 16.1 mph 23.0 mph N/A   Overcast
3:53 AM 33.8 °F 22.8 °F 26.6 °F 75% 29.75 in 5.0 mi ESE 18.4 mph 25.3 mph N/A   Mostly Cloudy
4:14 AM 33.8 °F 23.2 °F 26.6 °F 75% 29.74 in 5.0 mi ESE 17.3 mph - N/A   Haze
4:34 AM 33.8 °F 22.8 °F 26.6 °F 75% 29.71 in 5.0 mi ESE 18.4 mph 24.2 mph N/A   Haze
4:53 AM 33.8 °F 22.2 °F 26.6 °F 75% 29.68 in 5.0 mi ESE 20.7 mph 27.6 mph N/A   Overcast
5:14 AM 33.8 °F 23.2 °F 26.6 °F 75% 29.65 in 5.0 mi East 17.3 mph 25.3 mph N/A   Haze
5:34 AM 33.8 °F 21.3 °F 26.6 °F 75% 29.66 in 5.0 mi ESE 24.2 mph 27.6 mph N/A   Haze
5:54 AM 33.8 °F 22.2 °F 26.6 °F 75% 29.64 in 5.0 mi ESE 20.7 mph 28.8 mph N/A   Haze
6:14 AM 33.8 °F 22.5 °F 26.6 °F 75% 29.64 in 5.0 mi ESE 19.6 mph 27.6 mph N/A   Haze
6:34 AM 33.8 °F 22.5 °F 26.6 °F 75% 29.62 in 5.0 mi ESE 19.6 mph 26.5 mph N/A   Haze
6:54 AM 33.8 °F 22.2 °F 26.6 °F 75% 29.56 in 5.0 mi East 20.7 mph 26.5 mph N/A   Haze
7:14 AM 33.8 °F 22.2 °F 26.6 °F 75% 29.57 in 4.0 mi ESE 20.7 mph 27.6 mph N/A   Haze
7:33 AM 33.8 °F 21.9 °F 26.6 °F 75% 29.58 in 3.0 mi ESE 21.9 mph 28.8 mph N/A   Haze
7:53 AM 33.8 °F 21.0 °F 28.4 °F 81% 29.54 in 1.5 mi East 25.3 mph 35.7 mph N/A   Overcast
8:13 AM 33.8 °F 21.6 °F 28.4 °F 81% 29.52 in 1.5 mi East 23.0 mph 31.1 mph 0.02 in   Overcast
8:34 AM 33.8 °F 22.5 °F 28.4 °F 81% 29.54 in 1.8 mi ESE 19.6 mph 27.6 mph 0.02 in   Overcast
8:54 AM 35.6 °F 24.8 °F 28.4 °F 75% 29.51 in 1.0 mi ESE 19.6 mph 25.3 mph 0.07 in   Overcast
9:14 AM 35.6 °F 26.2 °F 30.2 °F 81% 29.50 in 2.0 mi ESE 15.0 mph 20.7 mph 0.02 in   Overcast
9:33 AM 35.6 °F 25.2 °F 28.4 °F 75% 29.46 in 3.0 mi ESE 18.4 mph 23.0 mph 0.02 in   Haze
9:53 AM 35.6 °F 26.2 °F 30.2 °F 81% 29.46 in 1.8 mi ESE 15.0 mph - 0.04 in   Overcast
10:14 AM 35.6 °F 26.2 °F 30.2 °F 81% 29.43 in 4.0 mi ESE 15.0 mph - 0.01 in   Overcast
10:34 AM 35.6 °F 27.5 °F 30.2 °F 81% 29.44 in 2.0 mi ESE 11.5 mph - 0.04 in   Overcast
10:53 AM 35.6 °F 28.6 °F 30.2 °F 81% 29.43 in 1.5 mi ESE 9.2 mph - 0.07 in   Overcast
11:14 AM 35.6 °F 28.0 °F 30.2 °F 81% 29.42 in 0.8 mi ESE 10.4 mph - 0.03 in Snow Light Snow
11:34 AM 37.4 °F 29.8 °F 30.2 °F 75% 29.41 in 1.8 mi ESE 11.5 mph - 0.06 in Snow Light Snow
11:53 AM 37.4 °F 27.8 °F 30.2 °F 75% 29.38 in 1.0 mi ESE 17.3 mph 20.7 mph 0.08 in Snow Light Snow
12:13 PM 37.4 °F 27.5 °F 30.2 °F 75% 29.37 in 1.5 mi ESE 18.4 mph 24.2 mph N/A Snow Light Snow
12:33 PM 37.4 °F 28.2 °F 30.2 °F 75% 29.35 in 7.0 mi ESE 16.1 mph - N/A Snow Light Snow
12:54 PM 37.4 °F 28.5 °F 32.0 °F 81% 29.34 in 10.0 mi SE 15.0 mph 20.7 mph N/A   Overcast
1:14 PM 37.4 °F 28.2 °F 32.0 °F 81% 29.32 in 4.0 mi SE 16.1 mph - N/A   Haze
1:33 PM 37.4 °F 28.9 °F 32.0 °F 81% 29.32 in 4.0 mi SE 13.8 mph - N/A   Haze
1:53 PM 37.4 °F 28.5 °F 32.0 °F 81% 29.31 in 2.0 mi SE 15.0 mph - N/A Rain Rain
2:13 PM 37.4 °F 29.8 °F 32.0 °F 81% 29.29 in 2.5 mi ESE 11.5 mph - N/A   Haze
2:34 PM 39.2 °F 31.6 °F 33.8 °F 81% 29.28 in 2.0 mi ESE 12.7 mph 18.4 mph N/A   Haze
2:53 PM 39.2 °F 30.8 °F 33.8 °F 81% 29.27 in 3.0 mi SE 15.0 mph - N/A   Haze
3:14 PM 39.2 °F 31.2 °F 33.8 °F 81% 29.26 in 3.0 mi ESE 13.8 mph - N/A   Haze
3:34 PM 39.2 °F 33.0 °F 33.8 °F 81% 29.26 in 4.0 mi ESE 9.2 mph - N/A   Haze
3:53 PM 37.4 °F 30.3 °F 33.8 °F 87% 29.25 in 2.0 mi ESE 10.4 mph - N/A   Haze
4:13 PM 37.4 °F 30.3 °F 33.8 °F 87% 29.25 in 1.0 mi ESE 10.4 mph - N/A   Light Drizzle
4:33 PM 37.4 °F 30.8 °F 33.8 °F 87% 29.24 in 1.0 mi ESE 9.2 mph - N/A Rain Rain
4:53 PM 37.4 °F 30.8 °F 33.8 °F 87% 29.23 in 1.5 mi ESE 9.2 mph - N/A Rain Rain
5:14 PM 37.4 °F 30.3 °F 33.8 °F 87% 29.24 in 2.0 mi SE 10.4 mph - 0.04 in Rain Rain
5:34 PM 37.4 °F 32.8 °F 33.8 °F 87% 29.24 in 5.0 mi ESE 5.8 mph - 0.11 in Rain Light Rain
5:53 PM 39.2 °F 35.9 °F 33.8 °F 81% 29.24 in 5.0 mi SSE 4.6 mph - 0.14 in Rain Rain
6:14 PM 39.2 °F 33.0 °F 33.8 °F 81% 29.24 in 5.0 mi SSE 9.2 mph - 0.02 in Rain Rain
6:33 PM 39.2 °F 33.6 °F 33.8 °F 81% 29.24 in 7.0 mi South 8.1 mph - 0.05 in Rain Light Rain
6:54 PM 39.2 °F 32.0 °F 33.8 °F 81% 29.24 in 7.0 mi SSW 11.5 mph - 0.07 in Rain Light Rain
7:14 PM 37.4 °F 30.8 °F 30.2 °F 75% 29.24 in 2.0 mi SSW 9.2 mph - 0.03 in Snow Light Snow
7:34 PM 35.6 °F 32.8 °F 30.2 °F 81% 29.24 in 1.0 mi South 3.5 mph - 0.05 in Snow Snow
7:54 PM 35.6 °F 32.8 °F 30.2 °F 81% 29.23 in 1.2 mi South 3.5 mph - 0.08 in Snow Light Snow
8:13 PM 35.6 °F 31.7 °F 30.2 °F 81% 29.23 in 1.2 mi SSW 4.6 mph - 0.02 in Snow Snow
8:34 PM 35.6 °F 32.8 °F 30.2 °F 81% 29.23 in 1.2 mi South 3.5 mph - 0.03 in Snow Snow
8:54 PM 35.6 °F - 30.2 °F 81% 29.23 in 1.2 mi Calm Calm - 0.05 in Snow Light Snow
9:14 PM 35.6 °F - 30.2 °F 81% 29.23 in 1.5 mi Calm Calm - 0.02 in   Overcast
9:33 PM 35.6 °F - 30.2 °F 81% 29.23 in 1.8 mi Calm Calm - 0.03 in   Overcast
9:53 PM 35.6 °F 32.8 °F 30.2 °F 81% 29.24 in 1.5 mi West 3.5 mph - 0.04 in   Overcast
10:13 PM 35.6 °F 29.9 °F 30.2 °F 81% 29.25 in 1.8 mi WSW 6.9 mph - 0.01 in Snow Light Snow
10:33 PM 35.6 °F 29.2 °F 30.2 °F 81% 29.25 in 1.2 mi West 8.1 mph - 0.02 in Snow Light Snow
10:54 PM 35.6 °F 29.2 °F 30.2 °F 81% 29.27 in 1.8 mi West 8.1 mph - 0.02 in Snow Light Snow
11:14 PM 35.6 °F 28.0 °F 30.2 °F 81% 29.28 in 2.0 mi West 10.4 mph - N/A Snow Light Snow
11:34 PM 35.6 °F 27.5 °F 30.2 °F 81% 29.29 in 2.5 mi WNW 11.5 mph - N/A Snow Light Snow
11:53 PM 35.6 °F 26.2 °F 30.2 °F 81% 29.30 in 2.5 mi WNW 15.0 mph 19.6 mph N/A Snow Light Snow